Location: Buttermere
(51.3333°N, 1.5167°W)
Time: 12:16:29
(UTC+00:00)

Cosmos 2180 Rocket - Pass Details

Date: 18 September 2020
Orbit: 954 x 1004 km, 82.9° (Epoch: 23 October)

Event Time Altitude Azimuth Distance (km) Brightness Sun altitude
Exits shadow 21:50:39 77° 258° (WSW) 1,014 4.5 -30.6°
Maximum altitude 21:50:51 78° 281° (W) 1,011 4.5 -30.6°
Drops below altitude 10° 21:57:13 10° 8° (N) 2,770 7.4 -31.2°
Sets 21:59:47 0° 10° (N) 3,729 8.1 -31.4°
